Regional Weather Roundup
Issued by NWS

Home | Current Version | Previous Version | Text Only | Print | Product List | Glossary Off
Versions: 1 2 3 4 5 6 7 8 9 10 11 12 13 14 15 16 17 18 19 20 21 22 23 24 25 26 27 28 29 30 31 32 33 34 35 36 37 38 39 40 41 42 43 44 45 46 47 48 49 50

000
ASUS43 KDMX 251708
RWRIA

WEATHER ROUNDUP FOR IOWA
NATIONAL WEATHER SERVICE DES MOINES IA
1200 PM CDT MON JUL 25 2016

NOTE: "FAIR" INDICATES FEW OR NO CLOUDS BELOW 12,000 FEET WITH NO
SIGNIFICANT WEATHER AND/OR OBSTRUCTIONS TO VISIBILITY.

* - THESE STATIONS ARE NOT NWS STATIONS...THUS NOT UNDER NWS
QUALITY CONTROL.  THEY ALSO DO NOT REPORT WEATHER SUCH
AS PRECIPITATION OR FOG.

IAZ001>003-012>014-020>022-031>034-043>046-251800-
   NORTHWEST IOWA

CITY           SKY/WX    TMP DP  RH WIND       PRES   REMARKS
CARROLL *      SUNNY     82  64  54 CALM      30.13R HX  84
CHEROKEE *     SUNNY     82  63  51 CALM      30.13F HX  83
DENISON *      SUNNY     82  61  47 CALM      30.12R HX  83
LE MARS *      SUNNY     82  63  51 VRB7      30.14S HX  83
SHELDON *      SUNNY     81  63  54 VRB3      30.13S HX  82
SIOUX CITY     SUNNY     84  64  50 S7        30.13F HX  85
SPENCER        SUNNY     81  61  50 VRB5      30.13F HX  82
STORM LAKE *   SUNNY     81  63  54 VRB5      30.14F HX  82
$$

IAZ055>058-069>071-079>083-090>094-251800-
   SOUTHWEST IOWA

CITY           SKY/WX    TMP DP  RH WIND       PRES   REMARKS
ATLANTIC *     SUNNY     81  64  57 NE7       30.13S HX  82
CLARINDA *       N/A     79  66  65 MISG      30.15S HX  81
COUNCIL BLFS * SUNNY     81  64  57 CALM      30.14S HX  82
CRESTON *      CLOUDY    81  66  61 NE3       30.15R HX  83
HARLAN  *      SUNNY     82  64  54 CALM      30.17S HX  84
LAMONI         MOSUNNY   79  67  66 N5        30.11F HX  81
RED OAK *      SUNNY     81  70  69 S7        30.14S HX  84
SHENANDOAH *   MOSUNNY   79  68  69 VRB5      30.14S HX  81
$$

IAZ047>049-059>061-072>074-084-251800-
   CENTRAL IOWA

CITY           SKY/WX    TMP DP  RH WIND       PRES   REMARKS
AMES           SUNNY     83  63  50 N8        30.11R HX  84
ANKENY *         N/A    N/A N/A N/A MISG        N/A
BOONE *        SUNNY     82  61  47 N7        30.11R HX  83
CHARITON *       N/A    N/A N/A N/A MISG        N/A
DES MOINES     MOSUNNY   86  60  41 VRB6      30.10R HX  86
GRINNELL*      SUNNY     81  64  57 N6        30.11R HX  82
KNOXVILLE *    MOSUNNY   81  66  61 N9        30.09S HX  83
MARSHALLTOWN   SUNNY     83  62  49 N7        30.09R HX  84
NEWTON *       SUNNY     82  66  57 VRB7      30.10R HX  85
PELLA *        CLOUDY    82  67  62 N5        30.10F HX  84
PERRY *          N/A     82  68  63 NW3       30.12R HX  84
$$

IAZ004>006-015-016-023>025-035-036-251800-
   NORTH CENTRAL IOWA

CITY           SKY/WX    TMP DP  RH WIND       PRES   REMARKS
ALGONA *       SUNNY     81  59  47 NW7       30.13S HX  81
ESTHERVILLE    SUNNY     80  61  52 CALM      30.13R HX  81
FORT DODGE *   SUNNY     81  64  57 NW5       30.12S HX  82
MASON CITY     SUNNY     81  63  54 NW10      30.12S HX  82
FOREST CITY *    N/A     79  63  57 NW9       30.11F HX  80
IOWA FALLS *     N/A     82  63  52 NW8       30.11S HX  83
$$

IAZ007>011-017>019-026>030-037>042-050>054-066-251800-
   NORTHEAST IOWA

CITY           SKY/WX    TMP DP  RH WIND       PRES   REMARKS
CEDAR RAPIDS   SUNNY     81  66  60 NW9       30.06F HX  83
CHARLES CITY * SUNNY     79  63  57 NW12      30.10S HX  80
CLINTON *      SUNNY     82  67  60 N7        30.05R HX  84
DECORAH *      SUNNY     79  63  57 NW8G16    30.07S HX  80
DUBUQUE        SUNNY     80  62  54 N12       30.07S HX  81
MONTICELLO *   SUNNY     81  66  61 NW13      30.05F HX  83
OELWEIN *      SUNNY     79  64  61 NW10      30.09S HX  81
WATERLOO       SUNNY     81  61  50 N12       30.07S HX  82
$$

IAZ064-065-067-068-078-251800-
   EAST CENTRAL IOWA

CITY           SKY/WX    TMP DP  RH WIND       PRES   REMARKS
DAVENPORT      SUNNY     82  66  58 N13       30.05R HX  84
IOWA CITY      SUNNY     83  66  56 N10       30.07R HX  85
MT. PLEASANT * MOSUNNY   82  69  66 N8        30.07R HX  85
MUSCATINE *    MOSUNNY   82  64  54 N13       30.05R HX  84
QUAD CITIES    MOSUNNY   85  64  49 N10       30.03R HX  86
$$

IAZ062-063-075>077-085>089-095>099-251800-
   SOUTHEAST IOWA

CITY           SKY/WX    TMP DP  RH WIND       PRES   REMARKS
BURLINGTON     MOSUNNY   82  70  66 N7        30.05R HX  86
FAIRFIELD *    MOSUNNY   81  68  65 N9        30.07S HX  83
KEOKUK *       CLOUDY    81  68  65 VRB5G12   30.06R HX  83
OSKALOOSA *      N/A     79  67  67 N6        30.09S HX  81
CENTERVILLE *    N/A     81  68  65 NW8       30.10F HX  83
OTTUMWA        CLOUDY    80  66  62 N9        30.08S HX  82
WASHINGTON *   CLOUDY    81  66  61 NW12      30.08R HX  83
$$

ABBREVIATIONS USED IN REMARKS
   TC - TEMPERATURES IN CELSIUS
  WCI - WIND CHILL INDEX
   HX - HEAT INDEX
  VSB - VISIBILITY
$$





USA.gov is the U.S. government's official web portal to all federal, state and local government web resources and services.